Dewpoint
67 67 66 66 67 67 66 65 66 67 67 66 65 64 64 63 64 62 64 64 64 64 63 64 65 64 62 62 62 63 64 64 64 63 63 63 64 68 68 68 67 67 65 64 63 64 65 65 65 64 62 62 62 61 61 62 61 61 60 60 60 60 59 59 58 59 58 58 58 58 58 59 59 59 59 59 58 58 58 58 58 58 58 57 57
68 67 66 67 66 66 66 66 66 66 67 66 67 65 65 63 64 63 62 63 62 65 64 64 63 64 63 62 64 63 64 64 64 63 63 64 63 66 68 67 68 67 67 63 62 65 65 65 65 63 63 62 62 62 62 62 62 62 62 61 61 60 60 60 60 58 58 58 59 59 59 59 59 59 59 58 58 58 58 58 57 57 57 57 57
67 66 66 66 66 66 66 66 66 66 68 68 68 67 66 64 63 64 65 64 64 65 65 65 64 62 64 62 64 65 65 65 64 63 62 63 62 64 65 68 68 69 68 66 64 65 65 65 65 64 64 63 63 63 63 63 63 63 63 62 61 61 61 60 59 59 59 58 58 59 59 58 59 59 58 59 58 57 57 57 57 57 58 57 57
67 67 66 67 67 66 66 66 66 68 67 67 67 67 66 66 65 67 67 67 66 66 67 66 65 62 63 63 63 64 64 64 64 64 62 62 62 65 66 66 68 68 68 69 68 66 65 65 64 64 64 64 64 63 63 63 63 63 63 63 62 62 62 61 60 59 59 59 59 59 58 58 59 58 58 58 58 58 58 58 57 57 58 57 57
67 66 67 67 67 66 66 66 66 67 67 67 66 65 66 66 67 68 67 67 66 66 66 66 65 64 64 63 64 63 64 63 64 64 63 65 64 64 65 64 64 67 67 67 67 67 66 65 65 65 65 65 65 64 64 64 64 64 63 63 63 63 62 61 60 59 59 59 59 60 59 59 58 58 58 58 58 58 58 57 57 57 57 57 56
66 67 67 68 68 67 66 66 66 66 66 67 66 65 66 66 66 66 66 66 65 64 65 65 64 64 64 64 65 65 66 64 64 65 66 66 67 65 64 64 63 64 64 66 66 66 66 65 66 66 66 65 64 64 65 64 64 64 64 63 63 63 62 62 61 60 59 60 59 60 59 58 58 58 58 58 58 58 57 57 57 57 57 57 56
67 67 67 68 67 66 66 66 66 66 66 66 66 66 66 65 66 65 66 64 64 64 64 64 64 64 64 65 65 65 65 65 65 65 66 66 67 67 68 67 67 66 65 64 65 65 65 65 65 65 65 65 65 64 65 64 64 64 64 64 64 64 63 63 63 61 61 60 59 60 60 60 59 58 58 58 58 57 58 57 57 57 57 57 57
66 67 67 66 66 65 66 66 66 66 66 65 65 65 66 66 66 67 65 64 63 63 63 63 63 63 64 64 64 65 65 64 65 65 66 67 65 66 67 67 67 67 66 67 66 65 65 65 65 65 64 65 65 64 65 65 65 65 64 64 65 65 65 64 63 63 62 61 60 60 60 60 59 59 59 58 58 58 57 57 58 57 57 57 57
66 66 66 65 65 66 66 66 66 66 66 65 65 66 65 65 66 67 66 63 63 63 63 63 63 63 64 63 64 65 64 64 65 65 66 65 65 65 66 66 66 64 66 65 66 66 66 66 66 65 65 65 65 65 65 64 65 64 65 64 64 65 64 64 64 64 63 63 62 61 61 60 60 60 60 59 58 59 58 57 56 57 57 57 56
66 66 67 65 65 66 65 65 66 66 66 65 65 65 66 66 65 66 64 63 63 63 63 62 61 60 62 63 63 64 63 63 64 65 65 64 64 64 64 66 65 65 64 64 64 65 64 64 64 63 63 63 64 65 66 65 64 64 65 65 64 64 64 65 64 64 64 64 64 63 62 61 61 61 61 60 59 59 58 57 57 57 56 57 56
66 66 66 66 65 65 65 65 66 66 65 64 64 64 64 65 65 64 64 64 63 64 63 62 61 61 61 63 62 63 63 62 62 62 63 63 63 62 63 64 64 64 64 64 65 64 63 63 62 62 61 61 62 64 64 64 64 64 64 64 65 64 64 64 64 64 63 64 64 64 64 63 62 61 61 61 61 60 59 59 58 58 57 57 56
66 66 66 66 65 65 65 65 65 65 64 64 64 64 63 63 63 63 63 63 64 64 64 63 62 62 62 63 64 64 63 64 64 64 64 64 63 63 63 63 64 64 64 64 64 63 63 63 63 61 59 58 60 62 62 63 63 63 64 64 65 65 64 63 64 65 64 64 63 63 63 63 63 63 63 62 62 61 60 60 59 58 59 58 57
66 66 66 65 65 66 65 65 65 64 64 65 64 64 64 64 63 63 62 62 62 63 63 65 61 59 60 62 62 63 63 63 63 63 62 63 63 63 63 63 63 63 63 63 62 63 63 61 61 60 59 59 60 60 61 63 64 65 64 64 65 64 64 63 64 64 64 64 64 63 63 63 63 63 63 63 63 63 62 61 60 59 59 59 59
66 66 66 66 65 65 65 65 65 64 65 65 64 63 64 64 63 62 63 62 62 63 63 64 59 58 57 57 59 59 60 61 61 61 62 62 62 62 63 62 62 64 63 62 61 59 59 59 59 58 59 59 61 62 61 62 63 64 65 64 64 64 64 64 65 64 63 64 64 63 63 62 63 63 63 63 63 63 63 63 62 61 60 59 60
66 66 66 66 65 65 65 65 65 64 64 64 64 63 64 63 63 62 62 63 62 63 64 65 59 59 59 57 55 56 58 59 60 60 61 62 61 61 61 61 61 61 62 61 61 59 54 55 56 57 59 60 61 60 61 62 63 64 64 65 64 64 65 64 65 65 64 64 64 64 63 63 63 63 63 62 63 63 63 63 63 62 62 62 61
65 65 65 65 65 65 65 65 65 65 64 64 63 63 64 63 63 63 62 60 60 61 63 64 62 58 58 56 56 55 53 55 57 58 60 60 60 60 61 61 61 61 61 60 58 55 52 51 54 57 59 60 61 61 61 62 62 63 63 63 64 64 65 66 65 65 64 64 64 64 63 63 63 64 63 64 63 63 63 63 63 63 63 62 62
66 65 65 65 65 65 64 65 65 65 64 63 63 63 63 63 64 63 63 61 60 62 62 64 63 63 58 55 54 55 54 54 56 56 58 58 58 59 61 60 60 60 59 57 54 51 49 49 54 56 58 58 60 61 61 61 62 62 61 61 62 63 63 63 64 65 65 64 63 63 61 61 61 61 62 62 63 63 63 63 63 63 62 62 63
66 65 65 65 65 65 65 64 65 65 64 64 63 63 63 63 64 65 65 65 62 61 62 63 64 63 63 63 61 54 53 55 54 52 58 59 58 58 59 60 61 60 58 54 49 47 49 50 54 55 56 57 58 59 60 60 60 60 59 58 60 60 60 61 61 61 62 62 61 61 60 59 59 59 59 60 60 61 61 62 62 62 62 61 61
65 65 65 65 65 64 64 64 64 65 64 64 64 64 62 62 63 64 63 63 64 62 62 61 62 63 63 64 64 61 57 54 53 54 53 55 57 58 59 59 59 58 55 50 48 49 51 50 53 53 54 56 57 57 58 57 57 57 58 57 57 57 56 58 59 59 58 58 57 56 55 55 56 56 56 56 57 58 59 60 61 61 62 61 60
65 64 65 65 65 64 64 64 64 64 64 63 64 63 63 62 64 64 65 65 64 63 63 62 60 61 62 63 61 60 59 58 56 54 53 52 53 57 58 59 58 57 54 51 48 51 53 51 47 48 50 50 52 54 55 56 57 57 57 56 57 56 55 54 53 55 54 53 53 54 54 55 54 54 55 55 56 56 57 57 58 59 60 60 59
65 65 64 64 64 64 64 64 64 64 63 64 64 63 64 64 63 64 64 63 64 65 64 63 62 63 61 60 58 56 56 59 59 56 53 52 52 54 55 58 57 57 56 51 48 50 49 49 46 45 48 50 49 50 50 53 54 54 53 55 55 55 54 54 52 51 52 54 53 53 52 52 52 53 52 52 53 55 56 57 57 56 57 56 56
65 64 64 63 64 64 64 64 65 64 63 64 63 63 63 64 64 64 64 64 64 63 62 62 62 63 62 60 57 56 55 56 57 57 55 54 51 51 54 54 53 55 56 50 46 46 44 47 47 42 45 46 46 45 46 46 48 48 51 53 53 54 53 52 51 51 53 54 52 51 51 52 52 52 50 49 50 51 53 55 57 56 56 56 55
63 63 64 63 64 64 64 64 65 65 64 63 64 63 64 64 64 64 64 63 63 63 62 63 63 62 60 58 57 55 55 54 55 55 55 55 53 52 53 51 52 53 53 48 44 40 40 45 44 43 45 45 45 44 45 43 45 47 52 52 53 52 52 49 48 49 53 53 54 53 51 52 52 51 50 49 48 48 51 54 56 57 56 55 55
63 63 64 64 64 63 64 64 64 65 65 65 65 64 64 63 64 63 62 63 62 62 62 62 62 61 62 60 62 62 59 56 54 56 55 55 54 53 51 51 50 49 46 47 41 40 38 38 38 42 43 43 43 45 45 40 41 51 47 51 52 50 50 49 46 47 47 50 52 52 51 51 51 51 50 50 51 51 51 53 53 55 56 55 54
62 62 62 64 64 64 64 63 63 64 65 65 66 65 64 64 63 62 63 61 61 62 62 62 63 62 61 62 64 61 58 56 56 56 58 57 56 53 52 51 51 49 43 41 39 37 37 37 36 37 37 41 39 40 41 43 39 49 46 48 51 49 48 50 49 46 45 46 49 52 53 50 49 49 49 50 51 51 50 50 50 49 49 51 55
61 61 62 61 62 64 65 65 63 63 64 65 65 65 65 63 63 62 62 62 63 62 63 64 64 64 64 61 60 59 56 56 58 58 58 57 54 53 52 53 52 45 41 40 38 34 35 36 36 37 37 37 39 42 45 37 41 49 48 43 48 48 47 47 49 50 47 46 47 49 51 50 50 50 51 50 50 50 50 49 50 48 47 48 48
60 62 61 62 63 63 63 64 64 62 63 64 64 65 65 64 62 62 62 63 63 63 63 63 63 62 63 62 61 59 56 54 56 55 55 56 55 55 53 51 50 47 43 40 39 42 34 36 36 36 38 44 43 43 40 43 47 50 48 44 43 48 47 47 48 48 50 47 46 46 46 48 48 49 48 48 49 49 51 50 50 48 48 48 49
62 61 61 62 63 63 63 64 64 64 64 64 64 63 63 64 63 63 63 61 64 63 63 63 63 64 63 63 61 58 57 55 55 55 53 56 57 56 54 51 47 46 46 44 42 39 38 34 36 35 35 39 41 43 46 41 40 51 47 42 42 45 47 47 47 48 46 45 44 44 44 45 46 47 47 48 48 49 49 48 49 49 49 49 48
61 61 61 61 63 63 63 63 64 64 64 64 64 64 64 64 63 63 63 62 63 62 63 63 63 63 63 63 61 60 56 57 55 57 58 58 57 56 52 49 46 43 44 44 44 41 39 38 33 34 34 35 40 41 39 35 43 47 37 40 44 43 48 45 45 45 45 44 44 43 43 44 45 46 48 48 47 47 47 47 47 48 49 49 47
61 60 60 61 62 62 63 63 63 63 64 63 62 62 63 62 62 62 62 63 63 62 63 62 63 63 63 62 61 59 58 55 56 58 58 58 57 55 53 51 48 43 44 40 41 45 40 43 40 33 35 32 40 44 43 39 51 45 32 34 40 43 48 46 45 44 44 44 44 44 44 44 45 46 48 48 48 47 47 47 46 46 50 49 48
59 59 59 59 61 61 62 61 62 62 62 62 62 61 61 61 60 59 59 61 60 60 61 61 62 62 62 62 62 60 59 57 57 57 57 57 57 55 54 54 51 48 46 41 40 46 46 42 40 39 33 36 34 40 42 40 44 45 43 43 32 47 49 45 46 46 45 44 44 45 47 46 45 46 46 46 48 46 46 45 46 47 46 48 48
59 58 57 58 59 60 60 60 60 60 60 59 59 60 60 60 59 57 56 57 57 57 56 58 57 60 61 61 61 60 59 56 55 56 55 55 56 53 54 53 53 55 50 44 40 42 49 44 42 40 40 40 39 39 42 39 43 50 43 42 43 49 35 37 46 46 46 45 44 45 47 46 45 46 45 48 47 47 47 46 44 44 46 46 46
57 57 57 57 57 58 58 58 59 59 58 58 58 58 58 57 56 55 53 53 52 53 55 56 55 58 58 58 59 59 59 58 54 55 53 52 54 54 53 51 49 53 50 46 40 45 50 51 48 40 41 45 38 38 37 42 46 46 45 44 44 44 39 39 40 45 45 45 45 44 44 44 44 45 44 44 44 45 46 45 45 45 44 45 45
55 53 54 57 57 56 56 56 57 56 56 55 55 56 54 55 55 55 54 52 52 52 54 52 54 54 57 55 54 56 57 59 57 49 50 50 48 48 48 48 46 49 52 40 41 40 44 49 45 44 44 45 35 37 42 44 45 45 39 44 46 44 41 42 38 41 42 45 44 44 45 44 44 45 44 44 44 44 45 44 44 44 44 43 42
55 54 55 55 55 55 54 55 54 54 53 53 55 56 56 55 52 54 55 54 54 54 54 52 49 51 53 54 54 55 55 58 58 55 53 50 47 45 47 46 47 47 44 41 42 41 43 43 47 42 42 44 44 37 37 42 43 41 39 39 40 41 42 47 43 37 40 41 43 43 44 45 45 45 44 44 44 44 44 44 44 43 43 43 42
52 54 54 53 53 53 53 52 53 53 53 53 53 53 52 53 52 51 52 54 54 55 53 50 48 51 54 55 55 55 55 56 56 55 53 52 50 47 49 49 50 47 49 50 46 44 42 40 44 37 39 45 41 41 39 41 44 42 38 38 42 40 41 40 42 39 39 42 44 44 45 45 44 44 43 44 44 44 43 43 43 43 42 42 42
53 52 51 52 52 51 54 50 50 51 52 52 52 53 55 56 55 54 52 51 54 54 54 53 53 52 53 54 53 54 55 55 55 54 53 54 48 49 49 46 45 48 49 47 44 43 44 42 44 42 43 39 38 40 37 36 38 40 39 38 35 36 40 40 37 37 45 44 44 44 44 44 43 43 43 44 44 43 43 43 43 43 43 43 42
54 53 51 49 46 46 48 49 49 49 49 50 49 50 52 54 55 56 55 53 53 52 53 53 51 53 54 52 53 54 54 56 55 55 54 53 50 51 49 47 43 47 49 48 47 45 41 38 42 46 45 38 39 41 39 39 37 35 36 39 40 41 42 45 41 37 35 37 43 43 43 42 43 43 44 43 43 43 42 42 42 42 42 41 41
53 52 52 50 51 48 48 50 49 50 48 48 51 53 52 52 53 53 54 54 54 54 52 51 51 52 52 52 54 54 54 55 56 55 55 55 55 53 52 54 47 47 49 46 41 41 42 41 42 44 43 44 45 41 38 39 39 37 40 41 42 39 44 46 45 41 43 43 42 42 43 42 42 41 43 43 43 43 43 42 42 41 41 40 40
53 51 50 51 52 49 51 50 52 52 51 49 50 50 50 52 53 53 53 54 53 54 54 52 53 51 52 52 53 52 53 54 55 56 57 55 55 54 54 53 51 51 50 48 46 41 42 43 39 42 42 43 43 46 40 38 37 37 35 38 39 44 45 47 46 44 44 44 42 39 41 40 41 41 42 43 43 42 43 43 43 42 41 40 40
56 53 52 51 51 50 49 51 50 53 54 54 51 52 51 51 50 53 53 50 52 52 52 52 53 52 51 52 53 53 56 55 49 50 51 51 55 53 55 54 53 52 51 49 47 44 43 43 42 45 43 42 43 44 42 41 40 38 42 44 42 44 44 44 43 43 39 41 41 38 37 40 36 39 35 37 38 42 39 41 42 42 41 40 41
55 55 54 53 51 51 49 50 53 54 53 53 48 45 46 50 52 48 54 54 51 51 51 52 53 53 52 52 54 54 52 52 49 46 45 46 48 53 55 55 53 52 51 50 47 45 44 43 40 43 43 43 42 47 45 45 45 47 48 47 43 45 45 44 44 43 42 41 41 41 39 40 41 39 37 39 39 45 40 40 39 39 40 40 41
57 56 55 53 52 51 50 50 51 54 53 49 40 40 42 44 51 53 53 54 54 54 52 52 52 52 53 51 54 55 54 52 52 45 44 43 43 44 45 48 51 53 51 49 48 49 45 44 44 47 44 45 47 47 46 45 50 47 46 47 45 46 44 42 41 44 43 43 42 41 40 42 41 36 35 38 40 41 39 39 41 41 40 40 40
53 55 56 56 56 56 56 54 54 52 48 41 39 40 40 40 43 54 53 52 53 53 54 52 50 51 52 54 55 56 55 54 53 54 49 43 43 43 43 43 43 43 44 52 50 51 51 48 48 49 48 47 47 50 47 47 47 48 47 48 47 46 44 43 42 43 43 45 43 41 42 41 40 39 39 38 38 40 39 41 40 40 40 40 41
49 49 50 52 53 54 53 49 47 46 45 39 39 40 40 40 40 47 50 53 52 52 53 52 52 52 54 54 55 56 50 53 52 53 54 54 43 42 43 43 42 41 41 41 43 53 52 51 49 49 49 49 49 49 51 50 51 49 49 46 48 47 45 44 43 46 44 46 43 40 39 39 39 38 39 40 40 41 39 40 40 41 41 41 41
46 46 47 48 49 50 50 47 45 44 42 39 38 40 40 40 42 48 53 55 55 53 53 53 55 54 54 54 53 54 55 55 55 55 54 54 55 53 52 52 53 49 41 40 40 41 48 52 51 50 52 53 49 52 54 52 49 47 48 46 49 48 48 47 49 47 45 44 42 41 39 38 38 38 37 39 38 41 40 41 39 41 41 40 41
43 43 44 45 46 47 47 47 45 43 41 37 37 38 39 41 43 49 57 57 56 56 56 56 55 55 55 56 55 55 55 55 55 54 54 54 54 55 54 54 54 54 53 52 51 51 51 53 53 53 54 56 54 55 53 53 51 52 51 50 51 50 50 45 44 43 41 40 44 42 38 37 38 36 37 38 38 38 39 39 39 40 40 40 40
41 41 42 43 44 44 45 46 45 42 40 36 36 37 37 39 43 50 52 54 55 55 56 56 56 56 56 56 56 56 56 56 52 46 48 54 54 53 53 53 53 54 53 48 42 42 49 55 55 54 55 58 51 54 56 53 53 54 49 49 50 48 46 43 41 39 39 39 44 38 38 38 38 36 36 37 37 36 37 38 39 40 40 40 40
39 38 39 39 40 42 43 44 45 43 41 37 36 36 36 37 43 46 49 47 49 51 52 53 54 55 56 55 55 56 56 56 50 46 43 43 54 54 53 54 54 54 52 52 40 38 38 38 39 39 39 40 42 43 45 45 51 51 49 47 47 46 44 43 41 39 39 38 37 39 38 36 38 36 36 36 36 35 35 37 39 39 39 40 39
38 38 38 38 38 39 41 42 43 43 42 39 36 36 36 37 41 44 44 45 47 47 48 51 51 51 54 51 52 54 55 55 47 45 44 47 54 54 55 54 54 53 53 54 48 48 38 38 38 38 38 39 40 41 41 41 42 45 49 46 48 45 45 44 41 38 40 37 37 39 37 35 38 37 35 35 36 37 35 36 38 40 39 39 37
40 39 38 37 38 39 40 41 41 42 42 41 37 36 36 36 40 43 41 41 43 45 45 44 47 49 50 51 50 49 50 49 40 41 41 45 54 55 55 55 53 54 54 55 52 50 49 48 49 48 47 43 47 49 48 40 40 44 50 50 48 44 43 42 42 39 37 37 38 42 37 36 36 37 35 32 32 34 36 36 36 36 36 36 36